Regional Weather Roundup
Issued by NWS Charleston, SC

Current Version | Previous Version | Graphics & Text | Print | Product List | Glossary On
Versions: 1 2 3 4 5 6 7 8 9 10 11 12 13 14 15 16 17 18 19 20 21 22 23 24 25 26 27 28 29 30 31 32 33 34 35 36 37 38 39 40 41 42 43 44 45 46 47 48 49 50
000
ASUS42 KCHS 020311
RWRCHS

REGIONAL WEATHER ROUNDUP
NATIONAL WEATHER SERVICE CHARLESTON SC
1100 PM EDT WED APR 01 2015

NOTE: "FAIR" INDICATES FEW OR NO CLOUDS BELOW 12,000 FEET WITH NO
SIGNIFICANT WEATHER AND/OR OBSTRUCTIONS TO VISIBILITY.

NOT ALL STATIONS ARE QUALITY CONTROLLED BY THE NATIONAL
WEATHER SERVICE. USE DATA WITH CAUTION...ESPECIALLY
DEWPOINT OBSERVATIONS.

SCZ027-030-031-034>040-042>050-020400-
...SOUTHEAST SOUTH CAROLINA...

CITY           SKY/WX    TMP DP  RH WIND       PRES   REMARKS
N CHARLESTON   PTCLDY    59  54  83 E7        30.22R
WATERFRONT PRK   N/A     61 N/A N/A E14         N/A
MOUNT PLEASANT FAIR      59  54  82 E5        30.22R
PINOPOLIS        N/A     57  52  82 VRB2      30.12R
MONCKS CORNER  FAIR      55  50  82 E3        30.22R
SUMMERVILLE    FAIR      55  54  94 CALM      30.23R
BEAUFORT MCAS  CLEAR     61  56  83 E9        30.20R
BEAUFORT ARPT  FAIR      61  59  94 E5        30.20R FOG
HILTON HEAD IS CLEAR     63  59  88 NE8       30.21R
WALTERBORO     PTCLDY    54  52  94 E3        30.22R
ALLENDALE      FAIR      61  54  77 VRB6      30.19R

...SOUTHERN MIDLANDS AND PEE DEE...

CITY           SKY/WX    TMP DP  RH WIND       PRES   REMARKS
GEORGETOWN     NOT AVBL
KINGSTREE      NOT AVBL
ORANGEBURG     PTCLDY    59  49  69 SE8       30.21R
BARNWELL       FAIR      63  50  63 SE8       30.20R
AIKEN          FAIR      63  52  67 SE10G16   30.20R HAZE
MANNING        FAIR      54  45  71 CALM      30.22R
COLUMBIA       CLEAR     63  48  58 SE10      30.18R
SUMTER         CLEAR     58  44  60 SE13G22   30.20R
FLORENCE       CLEAR     55  46  71 SE9       30.23R
MYRTLE BEACH   CLEAR     57  48  72 E8        30.28R
N MYRTLE BEACH CLEAR     56  47  71 E10       30.25R

$$

GAZ063-065-086>088-099>101-113>116-118-119-134>141-150-020400-
...SOUTHEAST GEORGIA...

CITY           SKY/WX    TMP DP  RH WIND       PRES   REMARKS
SAVANNAH ARPT  PTCLDY    60  56  86 E10       30.19R
HUNTER AAF     PTCLDY    61  60  94 E12       30.17R
FORT STEWART   CLOUDY    63  59  86 E9        30.17R
STATESBORO     PTCLDY    60  56  88 SE6       30.19R
SYLVANIA       CLEAR     59  56  91 SE5       30.19R
CLAXTON        CLOUDY    61  59  94 E5        30.18R

...CSRA...CENTRAL AND FAR SOUTHEAST GEORGIA...

CITY           SKY/WX    TMP DP  RH WIND       PRES   REMARKS
THOMSON        PTCLDY    69  55  61 SE6       30.19R
AUGUSTA-BUSH   CLEAR     63  55  75 SE9       30.17R
AUGUSTA-DANIEL CLEAR     66  55  67 SE8       30.17R
SWAINSBORO     FAIR      64  50  59 SE12      30.18R
VIDALIA        PTCLDY    64  59  82 E9        30.16R
EASTMAN        FAIR      60  60 100 CALM      30.14R
HAZLEHURST     FAIR      66  59  77 SE12      30.14R
ALMA           CLEAR     65  55  70 E12       30.15R
WAYCROSS       CLEAR     67  60  77 SE8       30.16R
JESUP          CLOUDY    64  63  94 E10       30.18R
BAXLEY         FAIR      64  57  77 SE9       30.15R
BRUNSWICK      CLEAR     59  55  88 CALM      30.18R
SAINT SIMONS   CLEAR     61  59  93 NE6       30.17R

$$

SCZ027-028-034-036>038-045-046-048>050-GAZ119-141-020400-
...LAKE AND SUPPLEMENTAL COASTAL OBSERVATIONS...

STATION/POSITION TIME  TEMP    WIND        PRES    WAVE   SWELL
                       AIR SEA DIR/SP/G            HT/PER HT/PER/DIR
                 (UTC) (F)     (DEG/KT/KT) (MB)    (FT/S) (FT/S/D)
UPR LAKE MARION  NOT AVBL
WINYAH BAY       NOT AVBL
LAKE MURRAY      0200   66     100/  7/  9 1020.3R
ACE BASIN NERRS  NOT AVBL
FORT PULASKI     0200   62 62   50/ 14/ 18 1022.1R
SAPELO ISLAND    0200   62      40/  4     1021.0R

$$

ANZ835-935-AMZ111-154-330-350-352-354-370-450-454-472-020400-
...C-MAN AND BUOY OBSERVATIONS...

STATION/POSITION TIME  TEMP    WIND        PRES    WAVE   SWELL
                       AIR SEA DIR/SP/G            HT/PER HT/PER/DIR
                 (UTC) (F)     (DEG/KT/KT) (MB)    (FT/S) (FT/S/D)
BUOY 41004       0250   65 68   70/ 19/ 23 1022.4R   7/ 7   2/12
BUOY 41008       0250   64 62   80/  6/  6 1022.0R   2/ 4   2/110/ 4
FOLLY BEACH CMAN 0200   60      80/ 13/ 15 1022.5R
CAPERS NEARSHORE NOT AVBL
FRIPP NEARSHORE  0200   62      80/ 14/ 16 1021.4R


STATION/POSITION TIME  TEMP    WIND        PRES    WAVE   SWELL
                       AIR SEA DIR/SP/G            HT/PER HT/PER/DIR
                 (UTC) (F)     (DEG/KT/KT) (MB)    (FT/S) (FT/S/D)
5E ST. MARYS GA  0221      63                N/A     1/ 3
FRYING PAN BUOY  0250   60 62   80/ 19/ 25 1024.6R   5/ 6   2/100/ 8
BUOY 41025       NOT AVBL
CAPE LOOKOUT NC  0200   54      40/ 20/ 22 1025.4R
BUOY 41002       0250   64 69   40/ 19/ 23 1022.9R   7/ 9   3/330/ 9
BUOY 41010       0220   75 75  270/  4/  4 1020.3R
ST AUGUSTINE FL  0300   65 63   40/  2/  3 1021.7R


$$


USA.gov is the U.S. government's official web portal to all federal, state and local government web resources and services.